Date,TemperatureHighF,TemperatureAvgF,TemperatureLowF,DewpointHighF,DewpointAvgF,DewpointLowF,HumidityHigh,HumidityAvg,HumidityLow,PressureMaxIn,PressureMinIn,WindSpeedMaxMPH,WindSpeedAvgMPH,GustSpeedMaxMPH,PrecipitationSumIn
2013-2-1,33,28,22,18,10,5,64,47,35,30.05,29.55,15,6,36,0.01
2013-2-2,29,24,17,11,6,3,57,48,37,30.25,30.05,11,4,17,0.00
2013-2-3,27,24,21,21,19,12,89,79,52,30.06,29.73,6,2,12,0.00
2013-2-4,29,25,21,19,10,5,82,56,37,29.91,29.72,13,5,25,0.00
2013-2-5,28,24,20,22,10,5,87,58,44,30.02,29.91,7,1,11,0.00
2013-2-6,37,29,24,26,20,10,92,71,48,30.27,29.91,10,2,16,0.03
2013-2-7,27,21,15,15,1,-6,64,42,24,30.53,30.27,11,2,17,0.03
2013-2-8,33,28,18,30,25,16,95,87,68,30.51,29.65,18,4,35,0.00
2013-2-9,21,18,15,18,14,5,92,84,61,30.18,29.60,18,9,31,0.00
2013-2-10,38,23,11,7,3,-1,61,43,22,30.40,30.18,9,3,20,0.00
2013-2-11,41,32,20,40,26,5,96,80,45,30.34,29.59,6,1,12,0.17
2013-2-12,45,39,34,35,30,28,96,72,52,29.84,29.58,12,6,26,0.01
2013-2-13,42,35,28,28,25,23,83,68,51,29.85,29.70,7,2,14,0.01
2013-2-14,44,35,30,27,24,21,84,65,45,29.97,29.68,6,2,12,0.00
2013-2-15,52,39,29,36,31,23,92,74,50,29.98,29.88,9,4,17,0.00
2013-2-16,39,35,31,33,29,21,94,80,61,29.94,29.70,7,2,16,0.01
2013-2-17,32,23,18,22,14,2,89,69,44,29.70,29.33,18,9,37,0.01
2013-2-18,31,22,14,4,1,-3,57,41,25,30.12,29.61,19,8,31,0.01
2013-2-19,45,35,23,41,21,3,95,59,38,30.14,29.54,7,2,15,0.39
2013-2-20,42,34,27,41,22,13,96,65,44,29.74,29.49,13,6,24,0.40
2013-2-21,30,26,24,17,14,9,67,58,48,30.14,29.74,10,6,25,0.00
2013-2-22,37,30,24,26,22,16,82,70,56,30.38,30.13,10,2,16,0.00
2013-2-23,39,34,30,32,29,25,94,82,71,30.33,29.94,5,1,10,0.05
2013-2-24,37,34,30,36,32,29,96,95,94,29.94,29.70,9,2,15,0.58
2013-2-25,39,32,28,33,30,27,96,90,74,30.22,29.88,4,0,8,0.12
2013-2-26,43,35,30,36,31,28,94,84,65,30.34,30.17,3,0,5,0.01
2013-2-27,41,39,37,39,37,31,96,92,78,30.18,29.52,7,3,15,1.63
2013-2-28,48,38,34,38,35,33,96,88,63,29.62,29.50,7,2,13,0.59